Regional Weather Roundup
Issued by NWS San Diego, CA

Home | Current Version | Previous Version | Text Only | Print | Product List | Glossary On
Versions: 1 2 3 4 5 6 7 8 9 10 11 12 13 14 15 16 17 18 19 20 21 22 23 24 25 26 27 28 29 30 31 32 33 34 35 36 37 38 39 40 41 42 43 44 45 46 47 48 49 50
000
ASUS46 KSGX 262211
RWRSGX

SAN DIEGO HOURLY WEATHER ROUNDUP
NATIONAL WEATHER SERVICE SAN DIEGO CA
300 PM PDT WED APR 26 2017

NOTE: "FAIR" INDICATES FEW OR NO CLOUDS BELOW 12,000 FEET WITH NO
SIGNIFICANT WEATHER AND/OR OBSTRUCTIONS TO VISIBILITY.

CAZ042-043-060-061-PZZ750-775-262300-

GREATER SAN DIEGO AREA

CITY           SKY/WX    TMP DP  RH WIND       PRES   REMARKS
SAN DIEGO AP   MOSUNNY   69  57  65 SW8       29.91F
NATIONAL CITY    N/A     71  61  71 SW9       29.91F
CHULA VISTA      N/A     71  60  68 W1        29.83F
IMPERIAL BEACH MOSUNNY   69  57  65 W10       29.91F
BROWN FIELD    SUNNY     72  49  44 W10       29.90F
MIRAMAR MCAS   MOSUNNY   77  50  38 VRB6      29.89F
MONTGOMERY FLD SUNNY     72  48  42 SW8       29.90F

$$

NORTH SAN DIEGO COUNTY

CITY           SKY/WX    TMP DP  RH WIND       PRES   REMARKS
CAMP PENDLETON MOSUNNY   73  53  49 SW8       29.88F
OCEANSIDE AP   SUNNY     73  58  59 S8        29.88F
OCEANSIDE HBR    N/A     67  60  76 E1        29.92F
VISTA            N/A     73  53  49 W2        29.87F
CARLSBAD       SUNNY     70  53  54 SW9       29.89S
DEL MAR          N/A     68  61  79 SW3       29.92F
LA JOLLA SCRIP   N/A     66  61  83 SW3       29.89F
FALLBROOK        N/A     74  54  49 SW5       29.87S
ESCONDIDO        N/A     76  50  39 SW5       29.89F
SAN MARCOS       N/A     73  53  49 NW9       29.90F
POWAY            N/A     77  50  38 W6        29.90F

$$

EAST SAN DIEGO COUNTY

CITY           SKY/WX    TMP DP  RH WIND       PRES   REMARKS
RAMONA         SUNNY     76  51  41 W12G20    29.90S
SANTEE LAKES     N/A     75  52  44 SW3       29.88S
LA MESA          N/A     72  55  54 W7        29.83F
JAMUL            N/A     75  52  44 CALM      29.90S
DESCANSO N       N/A     68  51  54 W3        29.85F
MT. LAGUNA OBS   N/A     62  40  45 W5        29.62S
CAMPO            N/A     75  43  31 W14       29.87F

$$

ORANGE COUNTY AND THE LOS ANGELES BASIN

CITY           SKY/WX    TMP DP  RH WIND       PRES   REMARKS
JOHN WAYNE AP  PTSUNNY   71  54  54 SW14      29.89R
LAGUNA BEACH     N/A     73  62  68 SE9       29.84F
LAKE FOREST FR   N/A     78  48  34 W5        29.77S
HUNTINGTON BCH   N/A     71  58  64 S7        29.89F
LOS ALAMITOS   PTSUNNY   69  54  57 S14       29.87S
FULLERTON      MOSUNNY   73  51  46 S9        29.86S
LONG BEACH     MOSUNNY   75  50  41 W3        29.86F
L.A. AP        PTSUNNY   68  53  58 W14       29.86F
L.A. DOWNTOWN  CLOUDY    74  49  41 CALM      29.85S

$$

THE INLAND EMPIRE

CITY           SKY/WX    TMP DP  RH WIND       PRES   REMARKS
CORONA         PTSUNNY   77  52  41 W12       29.86S
CHINO          PTSUNNY   79  52  38 SW15G21   29.87S
ONTARIO        CLOUDY    78  50  37 SW14G22   29.86F
SAN BERNARDINO PTSUNNY   82  39  21 SW7       29.87  HAZE
RIVERSIDE AP   PTSUNNY   79  51  37 W12       29.86S
MORENO VALLEY    N/A     78  53  41 W7          N/A
MARCH ARB      PTSUNNY   79  47  33 W12       29.87S
HORSETHIEF CYN   N/A     79  43  27 E7        29.86S
PERRIS           N/A     82  50  33 W6        29.87S
HEMET EAST       N/A     79  41  25 W7        29.90F
FRENCH VALLEY  FAIR      75  46  35 SW14      29.88F
TEMECULA         N/A     75  51  42 SW9       29.90F

$$

SAN BERNARDINO AND RIVERSIDE COUNTY MOUNTAINS

CITY           SKY/WX    TMP DP  RH WIND       PRES   REMARKS
BIG BEAR AP    CLOUDY    59  36  41 W15G21    30.07S
ANGELUS OAKS     N/A     65  43  46 N1        29.80S
PINE COVE        N/A     62  43  49 NW3       29.85F

$$

SOUTHERN DESERT INCLUDING THE COACHELLA VALLEY

CITY           SKY/WX    TMP DP  RH WIND       PRES   REMARKS
PALM SPRINGS   PTSUNNY   90  39  16 SE9       29.75F
PALM DESERT      N/A     92  43  18 SE3       29.61F
THERMAL        MOSUNNY   90  37  15 SE5       29.71F
BLYTHE         SUNNY     89  29  11 SE6G18    29.72F
IMPERIAL AP    SUNNY     92  43  18 SW7       29.72F
EL CENTRO NAS  MOSUNNY   91  35  13 E8        29.73F
YUMA AZ        PTSUNNY   90  26  10 SW8       29.74
MEXICALI       PTSUNNY   90  28  11 SE13      29.74F

$$

UPPER DESERT

CITY           SKY/WX    TMP DP  RH WIND       PRES   REMARKS
VICTORVILLE AP CLOUDY    72  39  30 W37G44    29.86F
HESPERIA         N/A     76  45  32 NW10      29.96F
PALMDALE       CLOUDY    72  45  37 NW26G33   29.93S
LANCASTER      PTSUNNY   70  43  37 W28G39    29.93F
EDWARDS AFB    PTSUNNY   74  42  31 W30G44    29.84F
DAGGETT        PTSUNNY   83  41  22 W28G36    29.80F
29 PALMS N     PTSUNNY   86  36  16 NW17G26   29.86F
NEEDLES        PTSUNNY   91  26   9 SW14G25   29.72F

$$

REGIONAL REPORTS

CITY           SKY/WX    TMP DP  RH WIND       PRES   REMARKS
SANTA BARBARA  PTSUNNY   76  56  49 W14G23    29.84F
SANDBERG       CLOUDY    63  44  50 N17G32    30.04F
LAS VEGAS NV   PTSUNNY   83  23  11 E6        29.72F
PHOENIX AZ     PTSUNNY   88  21   8 SW15      29.75F
TIJUANA        MOSUNNY   73  45  35 W9        29.92F
ENSENADA NW      N/A     68  32  26 W2        29.89F

$$

OFFSHORE ISLANDS

CITY           SKY/WX    TMP DP  RH WIND       PRES   REMARKS
CATALINA ARPT  MOSUNNY   71  50  47 NW15      29.93F
SAN CLEMENTE I MOSUNNY   68  53  58 W18       29.92F
SAN NICOLAS IS MOSUNNY   63  55  75 W38G53    29.90F

$$

MARINE AND OFFSHORE BUOY REPORTS

STATION/POSITION SKY/WX   TEMP    WIND        PRES    VSBY  SWELL
                          AIR SEA DIR/SP/G                  HT/PER/DIR
                          (F)     (DEG/KT/KT) (MB)    (MI)  (FT/S/D)
TANNER BANKS               58 57  310/ 25/ 29 1013.2F         7/330/ 8
S CLEMENTE BASIN           60 63  260/ 14/ 17 1012.6F         7/280/ 8
SAN NICOLAS IS.               55                N/A           3/170/17
SO. S. ROSA ISLA           56 53  300/ 25/ 29 1014.4R         3/250/16
W. S. BARBARA CH           54 51  320/ 19/ 23 1015.2F         3/300/ 9
M. S. BARBARA CH                  270/ 23/ 31 1012.1F
S. MONICA BASIN            62 62  210/  4/  6 1011.6
S PEDRO CHANNEL               59                N/A           2/160/17
CMP PENDLETON NS              65                N/A           3/210/17
OCEANSIDE OFFSHR              65                N/A           3/180/15
TORREY PINES OTR              65                N/A           3/180/15
POINT LOMA SOUTH              64                N/A           3/170/17

$$




USA.gov is the U.S. government's official web portal to all federal, state and local government web resources and services.